• în Republica Moldova
  • Lista ţărilor
  • Pe 7 zile
  • Temperatura apei
  • Hartă satelitară
  • Meteo pe hartă
  • Widget-uri
  • user-avatar
    Intrare

    Meteo pe oră la Kalgoorlie

    Astăzi, 29 Aprilie, Sâmbătă

    Timp Temperatura Precipitaţii Vânt Presiune Umiditate
    00:00 +16°C° 0 mm 3 m/s 736 mmHg 44%
    01:00 +14°C° 0 mm 3 m/s 735 mmHg 47%
    02:00 +14°C° 0 mm 3 m/s 735 mmHg 50%
    03:00 +13°C° 0 mm 3 m/s 735 mmHg 52%
    04:00 +13°C° 0 mm 3 m/s 735 mmHg 54%
    05:00 +13°C° 0 mm 3 m/s 735 mmHg 56%
    06:00 +13°C° 0 mm 3 m/s 736 mmHg 54%
    07:00 +14°C° 0 mm 3 m/s 736 mmHg 53%
    08:00 +16°C° 0 mm 3 m/s 736 mmHg 51%
    09:00 +18°C° 0 mm 3 m/s 736 mmHg 45%
    10:00 +20°C° 0 mm 3 m/s 736 mmHg 39%
    11:00 +22°C° 0 mm 3 m/s 735 mmHg 33%
    12:00 +22°C° 0 mm 3 m/s 735 mmHg 30%
    13:00 +24°C° 0 mm 2 m/s 734 mmHg 28%
    14:00 +25°C° 0 mm 2 m/s 734 mmHg 25%
    15:00 +24°C° 0 mm 2 m/s 734 mmHg 28%
    16:00 +23°C° 0 mm 2 m/s 734 mmHg 30%
    17:00 +21°C° 0 mm 2 m/s 734 mmHg 32%
    18:00 +20°C° 0 mm 2 m/s 734 mmHg 35%
    19:00 +19°C° 0 mm 2 m/s 734 mmHg 38%
    20:00 +18°C° 0 mm 2 m/s 734 mmHg 40%
    21:00 +18°C° 0 mm 2 m/s 734 mmHg 43%
    22:00 +17°C° 0 mm 2 m/s 734 mmHg 45%
    23:00 +17°C° 0 mm 2 m/s 734 mmHg 47%

    Mâine, 30 Aprilie, Duminică

    Timp Temperatura Precipitaţii Vânt Presiune Umiditate
    00:00 +16°C° 0 mm 2 m/s 734 mmHg 49%
    01:00 +16°C° 0 mm 2 m/s 733 mmHg 50%
    02:00 +15°C° 0 mm 2 m/s 733 mmHg 52%
    03:00 +15°C° 0 mm 2 m/s 733 mmHg 53%
    04:00 +15°C° 0 mm 2 m/s 733 mmHg 54%
    05:00 +14°C° 0 mm 2 m/s 732 mmHg 55%
    06:00 +15°C° 0 mm 2 m/s 733 mmHg 52%
    07:00 +16°C° 0 mm 2 m/s 733 mmHg 49%
    08:00 +17°C° 0 mm 2 m/s 733 mmHg 46%
    09:00 +19°C° 0 mm 2 m/s 733 mmHg 40%
    10:00 +21°C° 0 mm 2 m/s 733 mmHg 34%
    11:00 +24°C° 0 mm 3 m/s 733 mmHg 28%
    12:00 +25°C° 0 mm 3 m/s 733 mmHg 26%
    13:00 +26°C° 0 mm 3 m/s 732 mmHg 24%
    14:00 +27°C° 0 mm 3 m/s 732 mmHg 21%
    15:00 +26°C° 0 mm 3 m/s 732 mmHg 23%
    16:00 +25°C° 0 mm 3 m/s 732 mmHg 25%
    17:00 +24°C° 0 mm 2 m/s 732 mmHg 27%
    18:00 +21°C° 0 mm 3 m/s 732 mmHg 29%
    19:00 +20°C° 0 mm 3 m/s 733 mmHg 31%
    20:00 +19°C° 0 mm 3 m/s 733 mmHg 33%
    21:00 +18°C° 0 mm 3 m/s 733 mmHg 36%
    22:00 +18°C° 0 mm 4 m/s 734 mmHg 40%
    23:00 +17°C° 0 mm 4 m/s 734 mmHg 43%

    Poimâine, 1 Mai, Luni

    Timp Temperatura Precipitaţii Vânt Presiune Umiditate
    00:00 +15°C° 0 mm 4 m/s 734 mmHg 55%
    01:00 +14°C° 0 mm 4 m/s 734 mmHg 67%
    02:00 +14°C° 0 mm 4 m/s 734 mmHg 78%
    03:00 +14°C° 0 mm 5 m/s 734 mmHg 82%
    04:00 +14°C° 0 mm 5 m/s 734 mmHg 85%
    05:00 +14°C° 0 mm 5 m/s 734 mmHg 89%
    06:00 +14°C° 0 mm 5 m/s 735 mmHg 86%
    07:00 +14°C° 0 mm 5 m/s 735 mmHg 83%
    08:00 +14°C° 0 mm 5 m/s 736 mmHg 80%
    09:00 +15°C° 0 mm 5 m/s 736 mmHg 76%
    10:00 +15°C° 0 mm 4 m/s 736 mmHg 72%
    11:00 +15°C° 0 mm 4 m/s 736 mmHg 68%
    12:00 +17°C° 0 mm 4 m/s 736 mmHg 63%
    13:00 +18°C° 0 mm 3 m/s 735 mmHg 58%
    14:00 +19°C° 0 mm 3 m/s 735 mmHg 53%
    15:00 +19°C° 0 mm 3 m/s 735 mmHg 54%
    16:00 +19°C° 0 mm 3 m/s 735 mmHg 54%
    17:00 +18°C° 0 mm 3 m/s 735 mmHg 55%
    18:00 +17°C° 0 mm 3 m/s 736 mmHg 58%
    19:00 +16°C° 0 mm 3 m/s 736 mmHg 61%
    20:00 +14°C° 0 mm 3 m/s 737 mmHg 63%
    21:00 +14°C° 0 mm 4 m/s 737 mmHg 64%
    22:00 +13°C° 0 mm 4 m/s 737 mmHg 64%
    23:00 +13°C° 0 mm 4 m/s 737 mmHg 64%

    2 Mai, Marţi

    Timp Temperatura Precipitaţii Vânt Presiune Umiditate
    00:00 +12°C° 0 mm 4 m/s 737 mmHg 68%
    01:00 +11°C° 0 mm 4 m/s 737 mmHg 72%
    02:00 +11°C° 0 mm 4 m/s 737 mmHg 76%
    03:00 +10°C° 0 mm 4 m/s 737 mmHg 79%
    04:00 +10°C° 0 mm 4 m/s 737 mmHg 81%
    05:00 +10°C° 0 mm 4 m/s 737 mmHg 83%
    06:00 +10°C° 0 mm 4 m/s 737 mmHg 80%
    07:00 +11°C° 0 mm 4 m/s 738 mmHg 76%
    08:00 +10°C° 0 mm 5 m/s 738 mmHg 73%
    09:00 +13°C° 0 mm 5 m/s 738 mmHg 66%
    10:00 +15°C° 0 mm 4 m/s 738 mmHg 58%
    11:00 +18°C° 0 mm 4 m/s 738 mmHg 51%
    12:00 +18°C° 0 mm 4 m/s 737 mmHg 47%
    13:00 +19°C° 0 mm 3 m/s 736 mmHg 44%
    14:00 +20°C° 0 mm 3 m/s 736 mmHg 41%
    15:00 +19°C° 0 mm 3 m/s 736 mmHg 42%
    16:00 +19°C° 0 mm 3 m/s 736 mmHg 43%
    17:00 +18°C° 0 mm 3 m/s 736 mmHg 44%
    18:00 +17°C° 0 mm 3 m/s 736 mmHg 47%
    19:00 +16°C° 0 mm 3 m/s 737 mmHg 49%
    20:00 +14°C° 0 mm 4 m/s 737 mmHg 52%
    21:00 +14°C° 0 mm 4 m/s 737 mmHg 57%
    22:00 +13°C° 0 mm 4 m/s 737 mmHg 62%
    23:00 +12°C° 0 mm 4 m/s 737 mmHg 67%

    3 Mai, Miercuri

    Timp Temperatura Precipitaţii Vânt Presiune Umiditate
    00:00 +12°C° 0 mm 4 m/s 737 mmHg 72%
    01:00 +12°C° 0 mm 4 m/s 736 mmHg 77%
    02:00 +11°C° 0 mm 3 m/s 736 mmHg 82%
    03:00 +11°C° 0 mm 3 m/s 736 mmHg 83%
    04:00 +11°C° 0 mm 3 m/s 736 mmHg 83%
    05:00 +10°C° 0 mm 3 m/s 736 mmHg 84%
    06:00 +11°C° 0 mm 4 m/s 737 mmHg 78%
    07:00 +12°C° 0 mm 5 m/s 737 mmHg 72%
    08:00 +13°C° 0 mm 6 m/s 737 mmHg 65%
    09:00 +14°C° 0 mm 6 m/s 737 mmHg 59%
    10:00 +16°C° 0 mm 6 m/s 736 mmHg 52%
    11:00 +19°C° 0 mm 6 m/s 736 mmHg 45%
    12:00 +20°C° 0 mm 6 m/s 735 mmHg 41%
    13:00 +20°C° 0 mm 6 m/s 735 mmHg 38%
    14:00 +21°C° 0 mm 5 m/s 734 mmHg 35%
    15:00 +20°C° 0 mm 5 m/s 734 mmHg 37%
    16:00 +20°C° 0 mm 4 m/s 734 mmHg 39%
    17:00 +19°C° 0 mm 3 m/s 734 mmHg 41%
    18:00 +18°C° 0 mm 3 m/s 734 mmHg 44%
    19:00 +17°C° 0 mm 3 m/s 734 mmHg 46%
    20:00 +15°C° 0 mm 4 m/s 735 mmHg 49%
    21:00 +15°C° 0 mm 4 m/s 734 mmHg 51%
    22:00 +14°C° 0 mm 4 m/s 734 mmHg 52%
    23:00 +14°C° 0 mm 4 m/s 734 mmHg 54%

    4 Mai, Joi

    Timp Temperatura Precipitaţii Vânt Presiune Umiditate
    00:00 +13°C° 0 mm 4 m/s 733 mmHg 55%
    01:00 +13°C° 0 mm 4 m/s 733 mmHg 56%
    02:00 +13°C° 0 mm 4 m/s 733 mmHg 57%
    03:00 +12°C° 0 mm 4 m/s 732 mmHg 58%
    04:00 +12°C° 0 mm 4 m/s 732 mmHg 59%
    05:00 +12°C° 0 mm 4 m/s 732 mmHg 60%
    06:00 +13°C° 0 mm 5 m/s 732 mmHg 56%
    07:00 +14°C° 0 mm 5 m/s 732 mmHg 52%
    08:00 +15°C° 0 mm 6 m/s 732 mmHg 49%
    09:00 +17°C° 0 mm 6 m/s 732 mmHg 42%
    10:00 +20°C° 0 mm 6 m/s 732 mmHg 36%
    11:00 +22°C° 0 mm 7 m/s 732 mmHg 30%
    12:00 +23°C° 0 mm 6 m/s 731 mmHg 28%
    13:00 +24°C° 0 mm 6 m/s 730 mmHg 26%
    14:00 +26°C° 0 mm 6 m/s 730 mmHg 24%
    15:00 +25°C° 0 mm 5 m/s 730 mmHg 27%
    16:00 +23°C° 0 mm 4 m/s 730 mmHg 29%
    17:00 +22°C° 0 mm 3 m/s 730 mmHg 32%
    18:00 +21°C° 0 mm 3 m/s 730 mmHg 34%
    19:00 +20°C° 0 mm 3 m/s 731 mmHg 37%
    20:00 +19°C° 0 mm 3 m/s 731 mmHg 40%
    21:00 +18°C° 0 mm 3 m/s 731 mmHg 47%
    22:00 +17°C° 0 mm 4 m/s 731 mmHg 54%
    23:00 +17°C° 0 mm 4 m/s 731 mmHg 61%
    Arată mai mult